FW3304 Weather Reports


Display with metric or nautical units.
time (UTC)temp
F
wind
direction
speed
MPH
gust
MPH
rain 1hr
in
rain 24hr
in
rain mn
in
humidity
%
barometer
mb
20260831103050 73 160 0.0 0.0 0.00 0.00 0.00 95 1017.1
20260831103016 73 0.0 0.0 0.00 0.00 0.00 95 1019.7
20260831101552 73 160 0.0 0.0 0.00 0.00 0.00 94 1017.1
20260831100041 73 160 0.0 0.0 0.00 0.00 0.00 93 1016.9
20260831100016 73 0.0 4.0 0.00 0.00 0.00 93 1019.5
20260831094542 74 160 0.0 0.0 0.00 0.00 0.00 93 1016.8
20260831093039 74 160 0.0 0.0 0.00 0.00 0.00 93 1016.7
20260831093016 74 160 0.0 5.0 0.00 0.00 0.00 93 1019.3
20260831091546 74 160 1.0 3.0 0.00 0.00 0.00 93 1016.5
20260831090041 74 160 1.0 5.0 0.00 0.00 0.00 93 1019.1
20260831090036 74 160 1.0 2.0 0.00 0.00 0.00 93 1016.5
20260831084535 75 160 1.0 3.0 0.00 0.00 0.00 92 1016.5
20260831083034 75 159 1.0 3.0 0.00 0.00 0.00 92 1016.4
20260831083016 75 160 1.0 5.0 0.00 0.00 0.00 92 1019.0
20260831081536 75 159 1.0 3.0 0.00 0.00 0.00 92 1016.2
20260831080036 75 159 1.0 5.0 0.00 0.00 0.00 93 1018.8
20260831080033 75 159 1.0 3.0 0.00 0.00 0.00 93 1016.2
20260831074532 75 158 1.0 4.0 0.00 0.00 0.00 94 1016.2
20260831073031 74 158 2.0 3.0 0.00 0.00 0.00 94 1016.3
20260831073016 74 158 0.0 4.0 0.00 0.00 0.00 94 1019.0
20260831071537 74 156 0.0 0.0 0.00 0.00 0.00 94 1016.4
20260831070027 75 156 0.0 0.0 0.00 0.00 0.00 94 1016.5
20260831070016 75 157 0.0 2.0 0.00 0.00 0.00 94 1019.2
20260831064528 75 156 0.0 0.0 0.00 0.00 0.00 93 1016.5
20260831063022 76 156 0.0 1.0 0.00 0.00 0.00 93 1016.5
20260831063016 76 156 0.0 2.0 0.00 0.00 0.00 93 1019.3
20260831061520 76 156 1.0 2.0 0.00 0.00 0.00 92 1016.5
20260831060018 76 156 0.0 1.0 0.00 0.00 0.00 92 1016.5
20260831060016 76 156 0.0 2.0 0.00 0.00 0.00 92 1019.2
20260831054517 77 156 0.0 2.0 0.00 0.00 0.00 91 1016.6
20260831053020 78 156 0.0 5.0 0.00 0.00 0.00 90 1019.4
20260831053014 78 156 0.0 2.0 0.00 0.00 0.00 90 1016.6
20260831051513 78 156 0.0 2.0 0.00 0.00 0.00 89 1016.5
20260831050016 78 157 1.0 5.0 0.00 0.00 0.00 89 1019.1
20260831050010 78 156 1.0 3.0 0.00 0.00 0.00 89 1016.4
20260831044510 78 156 1.0 4.0 0.00 0.00 0.00 90 1016.5
20260831043016 78 154 1.0 3.0 0.00 0.00 0.00 91 1019.1
20260831043009 78 155 2.0 3.0 0.00 0.00 0.00 91 1016.5
20260831041509 77 155 2.0 3.0 0.00 0.00 0.00 93 1016.5
20260831040112 77 147 1.0 2.0 0.00 0.00 0.00 92 1016.5
20260831040016 77 148 0.0 2.0 0.00 0.00 0.00 92 1019.1
20260831034512 78 147 0.0 0.0 0.00 0.00 0.00 92 1016.6
20260831033016 78 148 0.0 3.0 0.00 0.00 0.00 91 1019.0
20260831033007 78 147 0.0 0.0 0.00 0.00 0.00 91 1016.5
20260831031507 79 147 0.0 0.0 0.00 0.00 0.00 90 1016.4
20260831030016 79 148 0.0 4.0 0.00 0.00 0.00 90 1019.0
20260831030007 79 147 0.0 3.0 0.00 0.00 0.00 90 1016.5
20260831024506 79 147 0.0 2.0 0.00 0.00 0.00 90 1016.4
20260831023056 80 148 1.0 4.0 0.00 0.00 0.00 90 1018.8
20260831023007 80 147 0.0 2.0 0.00 0.00 0.00 90 1016.3
20260831021504 80 147 1.0 4.0 0.00 0.00 0.00 90 1016.1
20260831020020 80 147 1.0 4.0 0.00 0.00 0.00 90 1018.6
20260831020003 80 146 1.0 3.0 0.00 0.00 0.00 90 1016.2
20260831014501 80 146 1.0 4.0 0.00 0.00 0.00 91 1016.0
20260831013108 80 145 0.0 0.0 0.00 0.00 0.00 89 1015.9
20260831013016 80 0.0 1.0 0.00 0.00 0.00 89 1018.4
20260831011600 81 145 0.0 0.0 0.00 0.00 0.00 88 1015.8
20260831010059 81 145 0.0 0.0 0.00 0.00 0.00 86 1015.7
20260831010015 81 146 0.0 3.0 0.00 0.00 0.00 86 1018.3
20260831004603 83 145 0.0 1.0 0.00 0.00 0.00 85 1015.6
20260831003058 84 145 0.0 0.0 0.00 0.00 0.00 82 1015.6
20260831003015 84 145 0.0 4.0 0.00 0.00 0.00 82 1018.1
20260831001557 85 145 1.0 3.0 0.00 0.00 0.00 80 1015.7
20260831000057 86 145 1.0 3.0 0.00 0.00 0.00 78 1015.6
20260831000035 86 146 1.0 7.0 0.00 0.00 0.00 78 1018.2
20260830234557 87 146 2.0 4.0 0.00 0.00 0.00 76 1015.6
20260830233056 88 144 0.0 4.0 0.00 0.00 0.00 74 1015.6
20260830233015 88 149 3.0 7.0 0.00 0.00 0.00 74 1018.2
20260830231601 88 143 3.0 6.0 0.00 0.00 0.00 72 1015.7
20260830230056 89 148 3.0 6.0 0.00 0.00 0.00 71 1015.7
20260830230015 89 146 2.0 7.0 0.00 0.00 0.00 71 1018.2
20260830224558 90 124 3.0 5.0 0.00 0.00 0.00 69 1015.6
20260830223059 90 139 3.0 6.0 0.00 0.00 0.00 67 1015.4
20260830223020 90 152 2.0 7.0 0.00 0.00 0.00 68 1018.0
20260830221603 91 150 2.0 6.0 0.00 0.00 0.00 67 1015.4
20260830220053 91 157 1.0 5.0 0.00 0.00 0.00 65 1015.5
20260830220015 91 172 2.0 8.0 0.00 0.00 0.00 64 1018.2
20260830214555 92 185 1.0 6.0 0.00 0.00 0.00 63 1015.7
20260830213047 92 190 3.0 6.0 0.00 0.00 0.00 62 1015.7
20260830213035 92 183 2.0 8.0 0.00 0.00 0.00 63 1018.4
20260830211545 92 174 0.0 8.0 0.00 0.00 0.00 63 1015.9
20260830210044 91 175 3.0 6.0 0.00 0.00 0.00 62 1015.9
20260830210015 91 175 2.0 9.0 0.00 0.00 0.00 63 1018.5
20260830204541 91 179 2.0 7.0 0.00 0.00 0.00 62 1016.0
20260830203040 91 211 4.0 8.0 0.00 0.00 0.00 66 1016.0
20260830203016 91 176 3.0 9.0 0.00 0.00 0.00 66 1018.7
20260830201541 91 207 4.0 6.0 0.00 0.00 0.00 65 1016.4
20260830200033 91 208 2.0 6.0 0.00 0.00 0.00 66 1016.5
20260830200015 91 183 2.0 10.0 0.00 0.00 0.00 66 1019.0
20260830194533 90 168 2.0 6.0 0.00 0.00 0.00 67 1016.6
20260830193035 90 191 3.0 8.0 0.00 0.00 0.00 65 1016.9
20260830193015 90 177 4.0 10.0 0.00 0.00 0.00 65 1019.4
20260830191526 90 187 4.0 8.0 0.00 0.00 0.00 66 1017.0
20260830190024 90 143 5.0 9.0 0.00 0.00 0.00 67 1017.1
20260830190019 90 171 3.0 10.0 0.00 0.00 0.00 67 1019.7
20260830184522 90 194 2.0 8.0 0.00 0.00 0.00 69 1017.4
20260830183019 89 193 2.0 6.0 0.00 0.00 0.00 70 1017.4
20260830183017 89 197 3.0 9.0 0.00 0.00 0.00 70 1020.0
20260830181618 89 200 3.0 8.0 0.00 0.00 0.00 69 1017.7
20260830180031 88 200 4.0 7.0 0.00 0.00 0.00 70 1017.8
20260830180017 88 168 3.0 12.0 0.00 0.00 0.00 70 1020.4
20260830174520 88 193 1.0 6.0 0.00 0.00 0.00 74 1017.8
20260830173017 88 149 4.0 12.0 0.00 0.00 0.00 72 1020.6
20260830173012 88 143 6.0 9.0 0.00 0.00 0.00 72 1017.8
20260830171510 88 156 4.0 8.0 0.00 0.00 0.00 73 1017.9
20260830170017 87 176 3.0 12.0 0.00 0.00 0.00 74 1020.6
20260830170006 87 186 1.0 7.0 0.00 0.00 0.00 74 1018.0
20260830164503 87 174 2.0 6.0 0.00 0.00 0.00 77 1018.2
20260830163101 87 145 4.0 10.0 0.00 0.00 0.00 75 1018.2
20260830163017 87 185 2.0 12.0 0.00 0.00 0.00 77 1020.8
20260830161605 86 221 2.0 6.0 0.00 0.00 0.00 76 1018.3
20260830160057 85 215 2.0 6.0 0.00 0.00 0.00 79 1018.2
20260830160017 85 189 2.0 7.0 0.00 0.00 0.00 78 1020.7
20260830154551 84 171 2.0 6.0 0.00 0.00 0.00 80 1018.3
20260830153047 83 224 3.0 5.0 0.00 0.00 0.00 83 1018.3
20260830153023 83 172 3.0 8.0 0.00 0.00 0.00 83 1020.9
20260830151545 82 189 2.0 5.0 0.00 0.00 0.00 84 1018.2
20260830150040 81 171 3.0 6.0 0.00 0.00 0.00 85 1018.1
20260830150017 81 186 3.0 9.0 0.00 0.00 0.00 85 1020.6
20260830144536 80 165 4.0 8.0 0.00 0.00 0.00 85 1018.2
20260830143036 79 178 3.0 9.0 0.00 0.00 0.00 86 1020.8
20260830143034 79 186 2.0 7.0 0.00 0.00 0.00 86 1018.2
20260830141540 79 181 4.0 8.0 0.00 0.00 0.00 88 1018.3
20260830140028 78 166 3.0 8.0 0.00 0.00 0.00 88 1018.2
20260830140016 78 185 3.0 9.0 0.00 0.00 0.00 88 1020.7
20260830134523 77 203 2.0 7.0 0.00 0.00 0.00 91 1018.3
20260830133019 75 187 2.0 7.0 0.00 0.00 0.00 93 1018.4
20260830133016 75 181 2.0 9.0 0.00 0.00 0.00 93 1020.8
20260830131519 74 181 2.0 4.0 0.00 0.00 0.00 95 1018.3
20260830130016 73 155 2.0 7.0 0.00 0.00 0.00 97 1020.8
20260830130011 73 182 2.0 7.0 0.00 0.00 0.00 97 1018.4
20260830124506 71 142 2.0 4.0 0.00 0.00 0.00 99 1018.3
20260830123016 70 90 1.0 3.0 0.00 0.00 0.00 99 1020.4
20260830123004 70 91 1.0 3.0 0.00 0.00 0.00 99 1018.2
20260830121559 68 83 1.0 3.0 0.00 0.00 0.00 99 1018.1
20260830120058 66 83 0.0 1.0 0.00 0.00 0.00 99 1018.0
20260830120021 66 0.0 0.0 0.00 0.00 0.00 99 1020.2
20260830114607 65 83 0.0 0.0 0.00 0.00 0.00 98 1017.7
20260830113052 66 83 0.0 0.0 0.00 0.00 0.00 98 1017.6
20260830113016 66 0.0 0.0 0.00 0.00 0.00 98 1020.0
20260830111551 66 83 0.0 0.0 0.00 0.00 0.00 98 1017.6
20260830110050 66 83 0.0 0.0 0.00 0.00 0.00 98 1017.3
20260830110016 66 0.0 0.0 0.00 0.00 0.00 98 1019.7
20260830104555 65 83 0.0 0.0 0.00 0.00 0.00 97 1017.4